Location: Plainartige
(45.6866°N, 1.7993°E)
Time: 14:24:16
(UTC+00:00)

Gbstr 26 Del rocket - Pass Details

Date: 03 March 2021
Orbit: 492 x 1264 km, 51.8° (Epoch: 15 April)

Event Time Altitude Azimuth Distance (km) Brightness Sun altitude
Rises 19:53:23 0° 288° (WNW) 2,886 8.0 -23.5°
Reaches altitude 10° 19:55:35 10° 295° (WNW) 2,074 6.8 -23.8°
Maximum altitude 20:00:10 44° 9° (N) 1,038 4.2 -24.6°
Enters shadow 20:01:05 41° 36° (NE) 1,127 4.1 -24.8°
